sat.trackr.live / text

‹ back to catalog

STARLINK-4347

NORAD 53076 · 2022-077AK

PAYLOAD ACTIVE UNKNOWN

§ Identity

Operator
Country
US
Launch date
2022-07-11
Launch site
AFWTR
Launch vehicle
Mass (kg)
RCS (m²)

Purposes: comms

External: N2YO · Heavens-Above · Gunter

§ Orbital elements

Epoch: 2026-09-19T22:32:37.165056Z

Period
93.91 min
Inclination
97.2845°
Eccentricity
0.0001612
Mean motion
15.33438699 rev/d
Perigee alt
464.5 km
Apogee alt
466.7 km
Semi-major
6,843.7 km
B*
6.8502e-5
RAAN
77.6928°
Arg perigee
87.1064°
Mean anomaly
273.0363°
Rev number
23,020

§ Raw data

STARLINK-43471 53076U 22077AK  26262.93931904  .00002137  00000+0  68502-4 0  99922 53076  97.2845  77.6928 0001612  87.1064 273.0363 15.33438699230205

JSON: /api/v1/satellites/53076 · /tle

For live sub-satellite position, see the globe view (requires WebGL).

§ Visibility from observer

Set your observer location to see the next 7 days of passes ≥ 10°. The values pass through the URL so the page stays shareable.

No JS? Fill the form by hand. The geolocation button needs JavaScript.